| time (UTC) | temp C | wind direction | speed KPH | gust KPH | rain 1hr cm | rain 24hr cm | rain mn cm | humidity % | barometer mb |
| 20260502210016 | 12 | 338 | 9.7 | 16.1 | 0.03 | 0.43 | 0.41 | 91 | 1010.2 |
| 20260502205036 | 12 | 338 | 11.3 | 17.7 | 0.03 | 0.43 | 0.41 | 90 | 1010.1 |
| 20260502204016 | 12 | 338 | 12.9 | 19.3 | 0.03 | 0.41 | 0.38 | 90 | 1010.0 |
| 20260502203016 | 12 | 338 | 8.0 | 16.1 | 0.03 | 0.41 | 0.38 | 91 | 1010.1 |
| 20260502202036 | 11 | 23 | 6.4 | 12.9 | 0.03 | 0.41 | 0.38 | 90 | 1010.1 |
| 20260502201016 | 11 | 23 | 3.2 | 11.3 | 0.03 | 0.41 | 0.38 | 89 | 1010.1 |
| 20260502200016 | 11 | 338 | 9.7 | 14.5 | 0.03 | 0.41 | 0.38 | 89 | 1010.1 |
| 20260502195016 | 11 | 23 | 8.0 | 12.9 | 0.03 | 0.41 | 0.38 | 90 | 1009.8 |
| 20260502194016 | 11 | 23 | 4.8 | 12.9 | 0.00 | 0.38 | 0.36 | 91 | 1010.0 |
| 20260502193016 | 11 | 23 | 4.8 | 12.9 | 0.00 | 0.38 | 0.36 | 92 | 1010.6 |
| 20260502192016 | 11 | 23 | 4.8 | 11.3 | 0.00 | 0.38 | 0.36 | 91 | 1010.6 |
| 20260502191016 | 12 | 23 | 6.4 | 17.7 | 0.00 | 0.38 | 0.36 | 91 | 1010.5 |
| 20260502190016 | 12 | 23 | 8.0 | 12.9 | 0.00 | 0.38 | 0.36 | 91 | 1010.5 |
| 20260502185016 | 12 | 338 | 11.3 | 17.7 | 0.00 | 0.38 | 0.36 | 90 | 1010.8 |
| 20260502184016 | 12 | 338 | 9.7 | 22.5 | 0.03 | 0.38 | 0.36 | 90 | 1010.6 |
| 20260502183016 | 12 | 23 | 11.3 | 19.3 | 0.03 | 0.38 | 0.36 | 88 | 1011.0 |
| 20260502182016 | 12 | 338 | 9.7 | 20.9 | 0.03 | 0.38 | 0.36 | 89 | 1011.0 |
| 20260502181016 | 12 | 23 | 8.0 | 17.7 | 0.03 | 0.38 | 0.36 | 91 | 1011.1 |
| 20260502164018 | 13 | 338 | 14.5 | 22.5 | 0.08 | 0.36 | 0.33 | 91 | 1011.4 |
| 20260502163017 | 13 | 23 | 9.7 | 17.7 | 0.10 | 0.36 | 0.33 | 92 | 1011.2 |
| 20260502162038 | 13 | 45 | 8.0 | 17.7 | 0.10 | 0.36 | 0.33 | 93 | 1011.5 |
| 20260502161037 | 13 | 23 | 12.9 | 25.7 | 0.08 | 0.33 | 0.30 | 93 | 1011.5 |
| 20260502152037 | 13 | 23 | 6.4 | 14.5 | 0.03 | 0.25 | 0.23 | 93 | 1012.3 |
| 20260502151017 | 13 | 338 | 8.0 | 16.1 | 0.03 | 0.25 | 0.23 | 92 | 1012.2 |
| 20260502123017 | 12 | 338 | 11.3 | 16.1 | 0.05 | 0.15 | 0.13 | 94 | 1011.3 |
| 20260502122017 | 12 | 338 | 12.9 | 17.7 | 0.05 | 0.15 | 0.13 | 94 | 1011.3 |
| 20260502121037 | 12 | 338 | 11.3 | 16.1 | 0.05 | 0.15 | 0.13 | 94 | 1011.4 |
| 20260502115017 | 12 | 338 | 9.7 | 12.9 | 0.08 | 0.13 | 0.10 | 95 | 1011.5 |
| 20260502114017 | 12 | 338 | 3.2 | 9.7 | 0.08 | 0.13 | 0.10 | 95 | 1011.6 |
| 20260502113016 | 12 | 338 | 1.6 | 6.4 | 0.08 | 0.10 | 0.08 | 95 | 1011.5 |
| 20260502112016 | 12 | 0.0 | 1.6 | 0.08 | 0.10 | 0.08 | 95 | 1011.4 | |
| 20260502111017 | 12 | 0.0 | 1.6 | 0.08 | 0.10 | 0.08 | 94 | 1011.3 | |
| 20260502110016 | 12 | 0.0 | 1.6 | 0.05 | 0.08 | 0.05 | 94 | 1011.3 | |
| 20260502105016 | 12 | 338 | 3.2 | 4.8 | 0.03 | 0.05 | 0.03 | 94 | 1011.3 |
| 20260502104016 | 12 | 338 | 3.2 | 6.4 | 0.03 | 0.05 | 0.03 | 94 | 1011.2 |
| 20260502103017 | 12 | 0.0 | 1.6 | 0.00 | 0.03 | 0.00 | 94 | 1011.1 | |
| 20260502102016 | 11 | 0.0 | 1.6 | 0.00 | 0.03 | 0.00 | 94 | 1011.0 | |
| 20260502101016 | 11 | 0.0 | 1.6 | 0.00 | 0.03 | 0.00 | 94 | 1010.8 | |
| 20260502091016 | 12 | 338 | 1.6 | 3.2 | 0.00 | 0.03 | 0.00 | 94 | 1010.8 |
| 20260502071016 | 12 | 0.0 | 3.2 | 0.00 | 0.03 | 0.00 | 94 | 1010.3 | |
| 20260502070016 | 11 | 0.0 | 1.6 | 0.00 | 0.03 | 0.00 | 94 | 1010.5 | |
| 20260502065016 | 11 | 338 | 1.6 | 3.2 | 0.00 | 0.03 | 0.00 | 94 | 1010.7 |
| 20260502064016 | 11 | 0.0 | 0.0 | 0.00 | 0.03 | 0.00 | 94 | 1010.7 | |
| 20260502063016 | 11 | 0.0 | 0.0 | 0.00 | 0.03 | 0.00 | 94 | 1010.7 | |
| 20260502062018 | 11 | 0.0 | 1.6 | 0.00 | 0.03 | 0.00 | 94 | 1010.8 | |
| 20260502061016 | 11 | 0.0 | 1.6 | 0.00 | 0.03 | 0.00 | 94 | 1011.0 | |
| 20260502060136 | 11 | 0.0 | 0.0 | 0.00 | 0.03 | 0.00 | 94 | 1011.3 | |
| 20260502055016 | 11 | 0.0 | 0.0 | 0.00 | 0.03 | 0.00 | 94 | 1011.3 | |
| 20260502054036 | 11 | 338 | 1.6 | 3.2 | 0.00 | 0.03 | 0.00 | 94 | 1011.5 |
| 20260502053016 | 11 | 0.0 | 0.0 | 0.00 | 0.03 | 0.00 | 93 | 1011.6 | |
| 20260502052016 | 11 | 338 | 3.2 | 6.4 | 0.00 | 0.03 | 0.00 | 93 | 1011.8 |
| 20260502051056 | 11 | 0.0 | 3.2 | 0.00 | 0.03 | 0.00 | 93 | 1011.8 | |
| 20260502050016 | 11 | 338 | 3.2 | 8.0 | 0.00 | 0.03 | 0.00 | 92 | 1012.1 |
| 20260502045016 | 11 | 338 | 3.2 | 9.7 | 0.00 | 0.03 | 0.00 | 92 | 1012.0 |
| 20260502044017 | 12 | 0.0 | 1.6 | 0.00 | 0.03 | 0.00 | 93 | 1012.1 | |
| 20260502043017 | 11 | 0.0 | 0.0 | 0.00 | 0.03 | 0.00 | 92 | 1012.1 | |
| 20260502042037 | 11 | 0.0 | 1.6 | 0.00 | 0.03 | 0.00 | 92 | 1012.1 | |
| 20260502041017 | 11 | 0.0 | 0.0 | 0.00 | 0.03 | 0.00 | 91 | 1012.4 | |
| 20260502040016 | 11 | 0.0 | 0.0 | 0.00 | 0.03 | 0.03 | 91 | 1012.3 | |
| 20260502035017 | 11 | 0.0 | 0.0 | 0.03 | 0.03 | 0.03 | 90 | 1012.5 | |
| 20260502034017 | 11 | 0.0 | 1.6 | 0.03 | 0.03 | 0.03 | 90 | 1012.7 | |
| 20260502033017 | 12 | 0.0 | 0.0 | 0.03 | 0.03 | 0.03 | 89 | 1012.6 | |
| 20260502032017 | 12 | 0.0 | 1.6 | 0.03 | 0.03 | 0.03 | 88 | 1012.5 | |
| 20260502031018 | 12 | 0.0 | 0.0 | 0.03 | 0.03 | 0.03 | 86 | 1012.9 | |
| 20260502030017 | 12 | 338 | 3.2 | 9.7 | 0.03 | 0.03 | 0.03 | 85 | 1012.8 |
| 20260502025017 | 12 | 0.0 | 1.6 | 0.00 | 0.00 | 0.00 | 81 | 1013.1 | |
| 20260502024017 | 12 | 0.0 | 0.0 | 0.00 | 0.00 | 0.00 | 80 | 1013.0 | |
| 20260502023017 | 12 | 0.0 | 0.0 | 0.00 | 0.00 | 0.00 | 79 | 1012.9 | |
| 20260502022017 | 13 | 0.0 | 0.0 | 0.00 | 0.00 | 0.00 | 78 | 1013.0 | |
| 20260502021017 | 13 | 135 | 1.6 | 6.4 | 0.00 | 0.00 | 0.00 | 77 | 1013.1 |
| 20260502020017 | 13 | 135 | 8.0 | 11.3 | 0.00 | 0.00 | 0.00 | 77 | 1013.2 |
| 20260502015017 | 13 | 135 | 6.4 | 11.3 | 0.00 | 0.00 | 0.00 | 78 | 1013.2 |
| 20260502014037 | 13 | 135 | 6.4 | 12.9 | 0.00 | 0.00 | 0.00 | 77 | 1013.2 |
| 20260502013017 | 13 | 135 | 4.8 | 11.3 | 0.00 | 0.00 | 0.00 | 76 | 1013.1 |
| 20260502012117 | 13 | 135 | 1.6 | 6.4 | 0.00 | 0.00 | 0.00 | 75 | 1013.1 |
| 20260502011017 | 13 | 158 | 4.8 | 16.1 | 0.00 | 0.00 | 0.00 | 73 | 1013.1 |
| 20260502010017 | 13 | 158 | 6.4 | 12.9 | 0.00 | 0.00 | 0.00 | 75 | 1013.2 |
| 20260502005017 | 13 | 135 | 3.2 | 8.0 | 0.00 | 0.00 | 0.00 | 75 | 1013.1 |
| 20260502004037 | 13 | 135 | 6.4 | 11.3 | 0.00 | 0.00 | 0.00 | 74 | 1012.9 |
| 20260502003017 | 13 | 158 | 3.2 | 9.7 | 0.00 | 0.00 | 0.00 | 77 | 1013.2 |
| 20260502002017 | 13 | 225 | 6.4 | 9.7 | 0.00 | 0.00 | 0.00 | 80 | 1013.4 |
| 20260502001017 | 13 | 113 | 3.2 | 9.7 | 0.00 | 0.00 | 0.00 | 79 | 1012.7 |
| 20260502000017 | 13 | 135 | 4.8 | 9.7 | 0.00 | 0.00 | 0.00 | 78 | 1012.6 |
| 20260501235017 | 14 | 113 | 9.7 | 14.5 | 0.00 | 0.00 | 0.00 | 77 | 1012.2 |
| 20260501234017 | 14 | 135 | 4.8 | 9.7 | 0.00 | 0.00 | 0.00 | 77 | 1012.3 |
| 20260501233037 | 14 | 113 | 3.2 | 8.0 | 0.00 | 0.00 | 0.00 | 76 | 1012.4 |
| 20260501232016 | 14 | 113 | 1.6 | 6.4 | 0.00 | 0.00 | 0.00 | 75 | 1012.4 |
| 20260501231017 | 14 | 135 | 4.8 | 9.7 | 0.00 | 0.00 | 0.00 | 74 | 1012.6 |
| 20260501230016 | 15 | 135 | 6.4 | 11.3 | 0.00 | 0.00 | 0.00 | 73 | 1012.4 |
| 20260501225016 | 15 | 113 | 3.2 | 11.3 | 0.00 | 0.00 | 0.00 | 73 | 1012.5 |
| 20260501224016 | 14 | 113 | 3.2 | 8.0 | 0.00 | 0.00 | 0.00 | 73 | 1012.4 |
| 20260501223016 | 14 | 113 | 8.0 | 14.5 | 0.00 | 0.00 | 0.00 | 73 | 1012.3 |
| 20260501222016 | 14 | 113 | 9.7 | 16.1 | 0.00 | 0.00 | 0.00 | 72 | 1012.6 |
| 20260501221016 | 15 | 113 | 9.7 | 17.7 | 0.00 | 0.00 | 0.00 | 70 | 1012.6 |
| 20260501220016 | 15 | 113 | 9.7 | 16.1 | 0.00 | 0.00 | 0.00 | 68 | 1012.6 |
| 20260501215016 | 15 | 113 | 6.4 | 12.9 | 0.00 | 0.00 | 0.00 | 69 | 1012.7 |
| 20260501214016 | 15 | 135 | 6.4 | 16.1 | 0.00 | 0.00 | 0.00 | 69 | 1012.8 |
| 20260501213016 | 15 | 135 | 8.0 | 14.5 | 0.00 | 0.00 | 0.00 | 68 | 1013.0 |
| 20260501212016 | 16 | 135 | 6.4 | 11.3 | 0.00 | 0.00 | 0.00 | 66 | 1013.0 |
| 20260501211016 | 16 | 135 | 4.8 | 11.3 | 0.00 | 0.00 | 0.00 | 63 | 1012.9 |